Date,TemperatureHighF,TemperatureAvgF,TemperatureLowF,DewpointHighF,DewpointAvgF,DewpointLowF,HumidityHigh,HumidityAvg,HumidityLow,PressureMaxIn,PressureMinIn,WindSpeedMaxMPH,WindSpeedAvgMPH,GustSpeedMaxMPH,PrecipitationSumIn
2013-2-1,56.9,39.0,20.4,21.9,17.7,13.8,77,46,22,30.46,30.32,5,1,10,0.00
2013-2-2,57.5,40.9,24.5,21.7,17.9,14.9,67,42,21,30.53,30.40,3,1,6,0.00
2013-2-3,52.9,41.7,28.0,27.5,19.2,15.5,61,42,23,30.45,30.11,3,0,6,0.00
2013-2-4,58.6,45.2,31.1,27.8,23.3,17.3,72,44,21,30.22,30.05,5,2,10,0.00
2013-2-5,61.5,42.8,26.8,21.8,17.4,14.3,66,39,17,30.22,30.06,3,0,7,0.00
2013-2-6,62.1,43.9,24.6,26.7,19.3,13.7,64,40,24,30.12,29.94,5,1,10,0.00
2013-2-7,57.9,44.2,28.6,25.6,19.8,11.9,67,40,16,30.23,30.08,4,1,6,0.00
2013-2-8,58.4,45.7,31.6,23.0,19.2,15.7,56,36,24,30.20,29.80,9,2,19,0.00
2013-2-9,49.4,37.8,30.5,22.4,12.9,3.8,54,37,20,29.98,29.68,13,4,22,0.00
2013-2-10,45.4,34.3,27.2,19.5,12.7,8.4,64,42,23,30.15,29.98,6,2,14,0.00
2013-2-11,47.6,33.2,18.5,20.1,14.5,3.0,78,51,16,30.23,30.08,5,2,14,0.00
2013-2-12,43.5,33.1,24.1,20.5,11.3,5.3,66,43,21,30.38,30.13,6,3,9,0.00
2013-2-13,28.3,27.5,26.2,10.0,9.5,9.0,48,46,45,30.38,30.37,2,1,4,0.00
2013-2-14,54.1,42.1,21.6,20.1,16.2,11.9,67,37,21,30.36,30.19,7,3,16,0.00
2013-2-15,52.9,40.0,24.5,21.1,12.5,1.2,70,37,13,30.52,30.33,9,2,18,0.00
2013-2-16,60.3,40.0,21.3,12.3,6.8,-0.9,55,28,10,30.60,30.28,4,1,6,0.00
2013-2-17,61.9,42.3,20.5,8.2,3.8,0.9,47,23,9,30.29,29.83,7,2,13,0.00
2013-2-18,53.6,42.2,30.0,16.2,-1.4,-17.6,46,19,5,30.18,29.92,7,3,15,0.00
2013-2-19,61.4,41.8,20.8,32.3,6.0,-10.5,59,26,10,30.21,29.84,11,3,18,0.00
2013-2-20,51.5,43.9,34.4,32.7,25.6,13.2,68,51,23,29.84,29.51,10,3,23,0.00
2013-2-21,47.1,35.9,27.6,25.6,21.9,17.7,84,59,34,30.05,29.61,6,2,13,0.22
2013-2-22,41.2,32.0,28.8,23.2,20.4,19.0,70,62,48,30.13,30.05,3,1,9,0.00
2013-2-23,49.1,35.2,20.3,17.7,12.8,9.0,66,42,23,30.27,29.87,5,1,7,0.00
2013-2-24,42.2,34.9,28.0,22.7,14.5,3.8,80,45,23,30.05,29.76,8,4,18,0.00
2013-2-25,50.4,36.3,25.3,22.4,11.2,1.6,78,40,16,30.29,30.06,6,2,11,0.03
2013-2-26,49.0,35.2,21.2,15.7,6.2,-7.2,66,33,13,30.27,29.97,10,3,17,0.00
2013-2-27,46.8,33.6,18.9,10.4,5.2,0.3,59,32,16,30.48,30.28,4,1,6,0.00
2013-2-28,54.7,38.4,24.8,8.2,3.7,-1.5,39,25,10,30.54,30.38,7,2,10,0.00